Weather History for New Philadelphia, OH

Change the Weather History Date:

Thursday, May 9, 2013

  Actual Average Record
Temperature  
Mean Temperature 68 °F 58 °F  
Max Temperature 80 °F 70 °F 88 °F (1965)
Min Temperature 55 °F 46 °F 26 °F (1983)
Degree Days  
Heating Degree Days 0 8  
Month to date heating degree days 10 78  
Since 1 July heating degree days 5450 5493  
Cooling Degree Days 3 0  
Month to date cooling degree days 4 0  
Year to date cooling degree days 16 7  
Growing Degree Days 17 (Base 50)    
Moisture  
Dew Point 54 °F    
Average Humidity 64    
Maximum Humidity 100    
Minimum Humidity 28    
Precipitation  
Precipitation 0.08 in 0.13 in 1.40 in (2003)
Month to date precipitation 0.18 1.05  
Year to date precipitation 8.25 12.48  
Sea Level Pressure  
Sea Level Pressure 29.97 in    
Wind  
Wind Speed 3 mph (West)    
Max Wind Speed 15 mph    
Max Gust Speed 21 mph    
Visibility 6 miles    
Events Fog , Rain    
T = Trace of Precipitation, MM = Missing Value Source: NWS Daily Summary

Daily Weather History Graph

Daily Weather History Graph

Search for Another Location

Airport:

Trip Planner

Search our weather history database for the weather conditions in past years. The results will help you decide how hot, cold, wet, or windy it might be!

Date:

Astronomy

May. 09, 2013 Rise Set
Actual Time 6:15 AM EDT 8:29 PM EDT
Civil Twilight 5:44 AM EDT 9:00 PM EDT
Nautical Twilight 5:07 AM EDT 9:37 PM EDT
Astronomical Twilight 4:26 AM EDT 10:18 PM EDT
Moon 5:58 AM EDT (5/9) 8:23 PM EDT (5/9)
Length of Visible Light 15h 15m
Length of Day
14h 14m
Waning Crescent, 0% of the Moon is Illuminated
May 9
Waning Crescent
May 9
New
May 18
First Quarter
May 25
Full
May 31
Last Quarter

Hourly Weather History & Observations

Time (EDT) Temp. Dew Point Humidity Pressure Visibility Wind Dir Wind Speed Gust Speed Precip Events Conditions
12:53 AM 57.9 °F 55.9 °F 93% 29.96 in 7.0 mi Calm Calm - 0.01 in   Overcast
1:53 AM 57.9 °F 55.9 °F 93% 29.95 in 6.0 mi Calm Calm - 0.01 in Rain Light Rain
2:53 AM 57.0 °F 55.0 °F 93% 29.94 in 9.0 mi Calm Calm - 0.00 in   Overcast
3:53 AM 57.0 °F 55.0 °F 93% 29.94 in 6.0 mi Calm Calm - N/A   Overcast
4:33 AM 55.4 °F 55.4 °F 100% 29.95 in 2.5 mi Calm Calm - N/A   Mostly Cloudy
4:42 AM 55.4 °F 55.4 °F 100% 29.95 in 5.0 mi Calm Calm - N/A   Mostly Cloudy
4:53 AM 57.0 °F 55.0 °F 93% 29.94 in 5.0 mi Calm Calm - N/A   Overcast
5:53 AM 55.9 °F 55.0 °F 97% 29.95 in 3.0 mi Calm Calm - N/A   Mostly Cloudy
6:09 AM 55.4 °F 53.6 °F 94% 29.96 in 1.8 mi Calm Calm - N/A   Mostly Cloudy
6:13 AM 55.4 °F 53.6 °F 94% 29.96 in 1.0 mi Calm Calm - N/A   Mostly Cloudy
6:20 AM 55.4 °F 53.6 °F 94% 29.97 in 0.2 mi Calm Calm - N/A Fog Fog
6:53 AM 55.0 °F 55.0 °F 100% 29.97 in 0.2 mi Calm Calm - N/A Fog Fog
7:10 AM 55.4 °F 55.4 °F 100% 29.99 in 1.5 mi Calm Calm - N/A   Overcast
7:13 AM 55.4 °F 55.4 °F 100% 29.99 in 2.5 mi Calm Calm - N/A   Overcast
7:21 AM 55.4 °F 55.4 °F 100% 29.99 in 3.0 mi Calm Calm - N/A   Overcast
7:53 AM 55.9 °F 55.0 °F 97% 30.00 in 4.0 mi Calm Calm - N/A   Overcast
8:53 AM 57.0 °F 55.9 °F 96% 30.02 in 4.0 mi Calm Calm - N/A   Overcast
9:53 AM 60.1 °F 55.9 °F 86% 30.00 in 8.0 mi Calm Calm - N/A   Mostly Cloudy
10:53 AM 66.9 °F 54.0 °F 63% 30.01 in 10.0 mi Variable 3.5 mph - N/A   Clear
11:53 AM 72.0 °F 53.1 °F 51% 30.00 in 10.0 mi Calm Calm - N/A   Clear
1:53 PM 78.1 °F 48.0 °F 35% 29.99 in 10.0 mi West 10.4 mph - N/A   Scattered Clouds
2:53 PM 79.0 °F 44.1 °F 29% 29.97 in 10.0 mi WNW 8.1 mph 16.1 mph N/A   Clear
4:53 PM 79.0 °F 46.9 °F 32% 29.95 in 10.0 mi West 8.1 mph - N/A   Partly Cloudy
5:53 PM 78.1 °F 46.9 °F 33% 29.94 in 10.0 mi SW 5.8 mph - N/A   Partly Cloudy
6:53 PM 75.0 °F 51.1 °F 43% 29.95 in 10.0 mi SW 5.8 mph - N/A   Scattered Clouds
7:53 PM 68.0 °F 55.9 °F 65% 29.99 in 4.0 mi NW 8.1 mph - 0.03 in Rain Rain
8:53 PM 62.1 °F 57.9 °F 86% 29.98 in 10.0 mi ESE 3.5 mph - 0.04 in   Mostly Cloudy
10:53 PM 60.1 °F 57.9 °F 93% 29.99 in 9.0 mi Calm Calm - N/A   Clear
11:53 PM 59.0 °F 55.9 °F 90% 29.98 in 10.0 mi Calm Calm - N/A   Scattered Clouds